Regional Weather Roundup
Issued by NWS Burlington, VT

Home | Current Version | Previous Version | Text Only | Print | Product List | Glossary On
Versions: 1 2 3 4 5 6 7 8 9 10 11 12 13 14 15 16 17 18 19 20 21 22 23 24 25 26 27 28 29 30 31 32 33 34 35 36 37 38 39 40 41 42 43 44 45 46 47 48 49 50
000
ASUS41 KBTV 310330
RWRBTV
VERMONT REGIONAL WEATHER ROUNDUP
NATIONAL WEATHER SERVICE BURLINGTON VT
1100 PM EDT WED JUL 30 2014

NOTE: "FAIR" INDICATES FEW OR NO CLOUDS BELOW 12,000 FEET WITH NO
SIGNIFICANT WEATHER AND/OR OBSTRUCTIONS TO VISIBILITY.

* THESE REPORTS ARE NOT UNDER NWS QUALITY CONTROL AND/OR DO NOT
  REPORT WEATHER SUCH AS PRECIPITATION AND FOG.

VTZ001>019-310400-
_____VERMONT_____


CITY           SKY/WX    TMP DP  RH WIND       PRES   REMARKS
BURLINGTON     MOCLDY    66  51  58 S7        29.98S
MONTPELIER     CLEAR     55  51  86 CALM      30.06S
MORRISVILLE    CLEAR     56  53  90 SW3       30.03S
ST. JOHNSBURY*   N/A     56  55  97 MISG      30.01S
LYNDONVILLE*   FAIR      56  51  84 CALM      30.05S
MIDDLEBURY*    FAIR      62  53  73 S5        30.00S
RUTLAND*       CLEAR     57  52  82 SE8       30.03S
SPRINGFIELD    PTCLDY    55  52  89 CALM      30.05R
HIGHGATE*      FAIR      57  54  88 CALM      29.97S
NEWPORT*       MOCLDY    55  53  94 SW5       30.02S
BENNINGTON     CLEAR     56  52  86 CALM      30.03S
SUTTON*          N/A     55 N/A N/A MISG        N/A
GALLUP MILLS*    N/A     37 N/A N/A MISG        N/A
UNION VILLAGE*   N/A     57 N/A N/A MISG        N/A
MT. MANSFIELD*   N/A     52 N/A N/A W12G23      N/A

_____LAKE CHAMPLAIN_____


CITY           SKY/WX    TMP DP  RH WIND       PRES   REMARKS
COLCHESTER RF*   N/A     70  57  64 S17         N/A
DIAMOND ISL*     N/A     64  55  72 SE3         N/A

$$

NYZ007-026>031-035-052-083-310400-
_____NORTHERN NEW YORK_____


CITY           SKY/WX    TMP DP  RH WIND       PRES   REMARKS
PLATTSBURGH    CLOUDY    59  56  89 CALM      29.97S
SARANAC LAKE   PTCLDY    52  50  93 CALM      30.00S
MASSENA        PTCLDY    58  57  97 CALM      29.98S
OGDENSBURG*    CLEAR     59  57  94 CALM      29.97S
POTSDAM*       CLOUDY    63  61  94 CALM      29.99R
PARISHVILLE*     N/A     61 N/A N/A S5          N/A
WATERTOWN      MOCLDY    61  53  75 S6        29.98F
FT DRUM        CLOUDY    61  54  76 S7        29.99S
ALBANY         MOCLDY    68  56  65 S7        30.02R
GLENS FALLS    CLEAR     59  56  89 CALM      30.00S

$$
NHZ002-005-011-310400-
_____NEW HAMPSHIRE_____


CITY           SKY/WX    TMP DP  RH WIND       PRES   REMARKS
LEBANON        CLEAR     56  53  90 CALM      30.03R
KEENE          CLEAR     57  48  72 CALM      30.06R
MT WASHINGTON  PTCLDY    43  41  93 SW18        N/A
PLYMOUTH       FAIR      55  54  95 CALM      30.04S
WHITEFIELD     CLEAR     53  51  93 CALM      30.04S

$$

_____REGIONAL QUEBEC LOCATIONS_____


CITY           SKY/WX    TMP DP  RH WIND       PRES   REMARKS
MONTREAL       MOCLDY    64  55  72 N5        29.95F
QUEBEC CITY    CLEAR     61  55  82 N5        29.99R
SHERBROOKE     CLEAR     55  54  94 E3        30.01S

_____REGIONAL ONTARIO LOCATIONS_____


CITY           SKY/WX    TMP DP  RH WIND       PRES   REMARKS
OTTAWA         PTCLDY    57  55  94 SW3       29.96S

______KEY______
VSB  - VISIBILITY IN MILES
WCI  - WIND CHILL INDEX
HX   - HEAT INDEX
$$
NNNN


USA.gov is the U.S. government's official web portal to all federal, state and local government web resources and services.